Bloomington, IN

8:20 AM EDT on April 29, 2017 (GMT -0400)
Monroe County

Weather History for KBMG - December, 2011

Change the Weather History Date:

Friday, December 23, 2011

  Actual Average Record
Temperature  
Mean Temperature 37 °F 30 °F  
Max Temperature 42 °F 39 °F 64 °F (2015)
Min Temperature 32 °F 22 °F -6 °F (2000)
Degree Days  
Heating Degree Days 28 35  
Month to date heating degree days 601 736  
Since 1 July heating degree days 1523 1792  
Cooling Degree Days 0 0  
Month to date cooling degree days 0 0  
Year to date cooling degree days 1170 927  
Moisture  
Dew Point 31 °F    
Average Humidity 78    
Maximum Humidity 92    
Minimum Humidity 64    
Precipitation  
Precipitation T in 0.14 in 1.43 in (2015)
Month to date precipitation 2.60 2.45  
Year to date precipitation 53.46 46.46  
Sea Level Pressure  
Sea Level Pressure 30.26 in    
Wind  
Wind Speed 6 mph (NW)    
Max Wind Speed 14 mph    
Max Gust Speed 18 mph    
Visibility 9 miles    
Events Rain    
T = Trace of Precipitation, MM = Missing Value Source: NWS Daily Summary

Daily Weather History Graph

Daily Weather History Graph

Search for Another Location

Airport or City:

Trip Planner

Search our weather history database for the weather conditions in past years. The results will help you decide how hot, cold, wet, or windy it might be!

Date:

Astronomy

Dec. 23, 2011 Rise Set
Actual Time 8:03 AM EST 5:27 PM EST
Civil Twilight 7:32 AM EST 5:58 PM EST
Nautical Twilight 6:59 AM EST 6:31 PM EST
Astronomical Twilight 6:26 AM EST 7:04 PM EST
Moon 6:52 AM EST (12/23) 4:36 PM EST (12/23)
Length of Visible Light 10h 25m
Length of Day
9h 24m
Waning Crescent, 1% of the Moon is Illuminated
Dec 23
Waning Crescent
Dec 24
New
Jan 1
First Quarter
Jan 9
Full
Jan 16
Last Quarter

Hourly Weather History & Observations

Time (EST) Temp. Windchill Dew Point Humidity Pressure Visibility Wind Dir Wind Speed Gust Speed Precip Events Conditions
12:11 AM 41.0 °F 39.0 °F 37.4 °F 87% 30.12 in 8.0 mi WNW 3.5 mph - N/A   Overcast
12:53 AM 39.9 °F 36.7 °F 37.9 °F 93% 30.14 in 6.0 mi WNW 4.6 mph - N/A   Overcast
1:53 AM 39.0 °F 34.8 °F 35.1 °F 86% 30.17 in 10.0 mi NNW 5.8 mph - N/A   Overcast
2:02 AM 39.2 °F 35.0 °F 35.6 °F 87% 30.16 in 10.0 mi NW 5.8 mph - N/A   Overcast
2:39 AM 39.2 °F - 35.6 °F 87% 30.18 in 9.0 mi Calm Calm - N/A   Overcast
2:53 AM 39.0 °F 35.7 °F 36.0 °F 89% 30.19 in 8.0 mi Variable 4.6 mph - N/A   Overcast
3:53 AM 39.0 °F - 36.0 °F 89% 30.21 in 5.0 mi Calm Calm - N/A   Overcast
4:09 AM 39.2 °F 37.0 °F 35.6 °F 87% 30.19 in 6.0 mi NNW 3.5 mph - N/A   Overcast
4:18 AM 39.2 °F 35.9 °F 35.6 °F 87% 30.20 in 6.0 mi NNW 4.6 mph - N/A   Overcast
4:46 AM 39.2 °F 35.0 °F 35.6 °F 87% 30.20 in 10.0 mi Variable 5.8 mph - N/A   Overcast
4:53 AM 39.0 °F 34.0 °F 35.1 °F 86% 30.21 in 10.0 mi NNW 6.9 mph - N/A   Overcast
5:39 AM 37.4 °F 31.4 °F 35.6 °F 93% 30.21 in 8.0 mi North 8.1 mph - 0.00 in Rain Light Rain
5:53 AM 37.9 °F 31.5 °F 35.1 °F 89% 30.22 in 10.0 mi North 9.2 mph - 0.00 in   Overcast
6:53 AM 37.9 °F 30.9 °F 33.1 °F 83% 30.26 in 10.0 mi North 10.4 mph - N/A   Overcast
7:26 AM 37.4 °F 32.8 °F 33.8 °F 87% 30.26 in 10.0 mi NNE 5.8 mph - N/A   Overcast
7:53 AM 37.0 °F 34.5 °F 33.1 °F 86% 30.29 in 10.0 mi North 3.5 mph - N/A   Overcast
8:53 AM 37.0 °F 33.3 °F 30.9 °F 79% 30.32 in 10.0 mi North 4.6 mph - N/A   Overcast
9:53 AM 37.0 °F 31.0 °F 30.0 °F 76% 30.34 in 10.0 mi North 8.1 mph - N/A   Overcast
10:53 AM 37.9 °F 32.7 °F 30.0 °F 73% 30.35 in 10.0 mi North 6.9 mph - N/A   Overcast
11:33 AM 37.4 °F 32.8 °F 28.4 °F 70% 30.33 in 10.0 mi North 5.8 mph - N/A   Overcast
11:50 AM 39.2 °F 35.9 °F 30.2 °F 70% 30.33 in 10.0 mi North 4.6 mph - N/A   Overcast
11:53 AM 39.0 °F - 30.0 °F 70% 30.34 in 10.0 mi Calm Calm - N/A   Overcast
1:23 PM 39.2 °F 37.0 °F 28.4 °F 65% 30.29 in 10.0 mi Variable 3.5 mph - N/A   Overcast
1:36 PM 39.2 °F 35.0 °F 28.4 °F 65% 30.28 in 10.0 mi North 5.8 mph - N/A   Overcast
1:53 PM 39.9 °F 36.7 °F 28.0 °F 63% 30.29 in 10.0 mi WNW 4.6 mph - N/A   Overcast
2:53 PM 39.9 °F 36.7 °F 28.0 °F 63% 30.28 in 10.0 mi WNW 4.6 mph - N/A   Overcast
3:53 PM 39.9 °F 35.8 °F 28.0 °F 63% 30.27 in 10.0 mi West 5.8 mph - N/A   Overcast
4:53 PM 39.0 °F 34.8 °F 28.9 °F 67% 30.28 in 10.0 mi West 5.8 mph - N/A   Overcast
5:53 PM 37.9 °F 32.1 °F 28.9 °F 70% 30.29 in 10.0 mi West 8.1 mph - N/A   Overcast
6:53 PM 37.0 °F 33.3 °F 28.0 °F 70% 30.30 in 10.0 mi West 4.6 mph - N/A   Overcast
7:53 PM 37.0 °F 33.3 °F 28.0 °F 70% 30.32 in 10.0 mi WSW 4.6 mph - N/A   Overcast
8:53 PM 36.0 °F 29.6 °F 26.1 °F 67% 30.32 in 10.0 mi West 8.1 mph - N/A   Overcast
9:40 PM 35.6 °F 29.2 °F 26.6 °F 70% 30.31 in 10.0 mi WSW 8.1 mph - N/A   Mostly Cloudy
9:48 PM 35.6 °F 29.2 °F 26.6 °F 70% 30.31 in 10.0 mi West 8.1 mph - N/A   Scattered Clouds
9:53 PM 35.1 °F 27.4 °F 27.0 °F 72% 30.33 in 10.0 mi West 10.4 mph - N/A   Scattered Clouds
10:53 PM 34.0 °F 28.0 °F 26.1 °F 73% 30.35 in 10.0 mi West 6.9 mph - N/A   Scattered Clouds
11:53 PM 32.0 °F 25.6 °F 25.0 °F 75% 30.35 in 10.0 mi West 6.9 mph - N/A   Clear